| time (UTC) | temp F | wind direction | speed knots | gust knots | rain 1hr in | rain 24hr in | rain mn in | humidity % | barometer mb |
| 20260505024500 | 58 | 86 | 1.7 | 3.5 | 0.00 | 0.00 | 0.00 | 57 | 1015.8 |
| 20260505024002 | 58 | 84 | 2.6 | 3.5 | 0.00 | 0.00 | 0.00 | 57 | 1015.8 |
| 20260505023503 | 58 | 88 | 3.5 | 5.2 | 0.00 | 0.00 | 0.00 | 57 | 1015.8 |
| 20260505023002 | 58 | 92 | 3.5 | 5.2 | 0.00 | 0.00 | 0.00 | 57 | 1015.8 |
| 20260505022503 | 58 | 88 | 3.5 | 5.2 | 0.00 | 0.00 | 0.00 | 57 | 1015.8 |
| 20260505022002 | 58 | 92 | 3.5 | 4.3 | 0.00 | 0.00 | 0.00 | 57 | 1015.9 |
| 20260505021502 | 58 | 84 | 2.6 | 5.2 | 0.00 | 0.00 | 0.00 | 57 | 1015.8 |
| 20260505021002 | 58 | 81 | 1.7 | 4.3 | 0.00 | 0.00 | 0.00 | 57 | 1015.9 |
| 20260505020459 | 58 | 98 | 1.7 | 3.5 | 0.00 | 0.00 | 0.00 | 57 | 1016.0 |
| 20260505015959 | 58 | 93 | 1.7 | 3.5 | 0.00 | 0.00 | 0.00 | 57 | 1016.1 |
| 20260505015500 | 58 | 90 | 2.6 | 3.5 | 0.00 | 0.00 | 0.00 | 57 | 1016.0 |
| 20260505014958 | 58 | 88 | 2.6 | 3.5 | 0.00 | 0.00 | 0.00 | 57 | 1016.0 |
| 20260505014500 | 58 | 98 | 2.6 | 5.2 | 0.00 | 0.00 | 0.00 | 57 | 1016.0 |
| 20260505014000 | 58 | 88 | 3.5 | 6.1 | 0.00 | 0.00 | 0.00 | 57 | 1016.0 |
| 20260505013503 | 58 | 83 | 3.5 | 6.1 | 0.00 | 0.00 | 0.00 | 57 | 1016.1 |
| 20260505013000 | 58 | 83 | 3.5 | 5.2 | 0.00 | 0.00 | 0.00 | 57 | 1016.1 |
| 20260505012459 | 58 | 92 | 2.6 | 5.2 | 0.00 | 0.00 | 0.00 | 57 | 1016.1 |
| 20260505010000 | 58 | 84 | 3.5 | 6.1 | 0.00 | 0.00 | 0.00 | 57 | 1016.1 |
| 20260505005503 | 58 | 89 | 3.5 | 6.1 | 0.00 | 0.00 | 0.00 | 57 | 1016.1 |
| 20260505005003 | 58 | 86 | 3.5 | 5.2 | 0.00 | 0.00 | 0.00 | 57 | 1016.2 |
| 20260505004503 | 58 | 91 | 3.5 | 5.2 | 0.00 | 0.00 | 0.00 | 56 | 1016.3 |
| 20260505004003 | 58 | 90 | 3.5 | 5.2 | 0.00 | 0.00 | 0.00 | 56 | 1016.3 |
| 20260505003502 | 58 | 74 | 2.6 | 4.3 | 0.00 | 0.00 | 0.00 | 56 | 1016.4 |
| 20260505003003 | 59 | 70 | 1.7 | 5.2 | 0.00 | 0.00 | 0.00 | 56 | 1016.4 |
| 20260505002500 | 58 | 92 | 1.7 | 4.3 | 0.00 | 0.00 | 0.00 | 56 | 1016.5 |
| 20260505001959 | 58 | 88 | 1.7 | 4.3 | 0.00 | 0.00 | 0.00 | 56 | 1016.6 |
| 20260505000502 | 59 | 141 | 0.9 | 2.6 | 0.00 | 0.00 | 0.00 | 56 | 1016.7 |
| 20260505000003 | 59 | 139 | 0.9 | 4.3 | 0.00 | 0.00 | 0.00 | 56 | 1016.7 |
| 20260504235459 | 58 | 113 | 1.7 | 4.3 | 0.00 | 0.00 | 0.00 | 56 | 1016.8 |
| 20260504235001 | 58 | 121 | 1.7 | 4.3 | 0.00 | 0.00 | 0.00 | 56 | 1016.7 |
| 20260504234459 | 58 | 92 | 1.7 | 4.3 | 0.00 | 0.00 | 0.00 | 56 | 1016.7 |
| 20260504234000 | 58 | 90 | 1.7 | 3.5 | 0.00 | 0.00 | 0.00 | 57 | 1016.8 |
| 20260504233500 | 58 | 72 | 1.7 | 3.5 | 0.00 | 0.00 | 0.00 | 56 | 1016.8 |
| 20260504232959 | 59 | 88 | 1.7 | 3.5 | 0.00 | 0.00 | 0.00 | 56 | 1016.8 |
| 20260504232500 | 59 | 96 | 2.6 | 3.5 | 0.00 | 0.00 | 0.00 | 56 | 1016.9 |
| 20260504231503 | 58 | 97 | 2.6 | 4.3 | 0.00 | 0.00 | 0.00 | 56 | 1016.9 |
| 20260504230959 | 58 | 98 | 1.7 | 3.5 | 0.00 | 0.00 | 0.00 | 56 | 1016.9 |
| 20260504230503 | 59 | 96 | 1.7 | 3.5 | 0.00 | 0.00 | 0.00 | 56 | 1017.0 |
| 20260504225504 | 59 | 94 | 1.7 | 3.5 | 0.00 | 0.00 | 0.00 | 55 | 1017.0 |
| 20260504225002 | 59 | 89 | 1.7 | 2.6 | 0.00 | 0.00 | 0.00 | 55 | 1017.0 |
| 20260504224504 | 59 | 87 | 1.7 | 2.6 | 0.00 | 0.00 | 0.00 | 55 | 1017.1 |
| 20260504224004 | 60 | 98 | 0.9 | 2.6 | 0.00 | 0.00 | 0.00 | 54 | 1017.1 |
| 20260504223505 | 60 | 88 | 0.0 | 2.6 | 0.00 | 0.00 | 0.00 | 54 | 1017.1 |
| 20260504222005 | 61 | 132 | 2.6 | 5.2 | 0.00 | 0.00 | 0.00 | 52 | 1017.2 |
| 20260504221505 | 61 | 150 | 2.6 | 5.2 | 0.00 | 0.00 | 0.00 | 52 | 1017.3 |
| 20260504221003 | 61 | 164 | 1.7 | 5.2 | 0.00 | 0.00 | 0.00 | 53 | 1017.4 |
| 20260504220008 | 61 | 142 | 2.6 | 4.3 | 0.00 | 0.00 | 0.00 | 53 | 1017.4 |
| 20260504215503 | 61 | 160 | 2.6 | 4.3 | 0.00 | 0.00 | 0.00 | 52 | 1017.4 |
| 20260504214503 | 61 | 134 | 2.6 | 7.0 | 0.00 | 0.00 | 0.00 | 52 | 1017.1 |
| 20260504213503 | 61 | 136 | 1.7 | 4.3 | 0.00 | 0.00 | 0.00 | 51 | 1017.1 |
| 20260504213005 | 61 | 155 | 2.6 | 6.1 | 0.00 | 0.00 | 0.00 | 51 | 1017.1 |
| 20260504212503 | 62 | 126 | 3.5 | 7.0 | 0.00 | 0.00 | 0.00 | 51 | 1017.2 |
| 20260504212003 | 62 | 129 | 4.3 | 7.0 | 0.00 | 0.00 | 0.00 | 50 | 1017.1 |
| 20260504211503 | 61 | 146 | 4.3 | 7.0 | 0.00 | 0.00 | 0.00 | 50 | 1017.2 |
| 20260504211003 | 61 | 126 | 3.5 | 7.0 | 0.00 | 0.00 | 0.00 | 50 | 1017.3 |
| 20260504210004 | 62 | 142 | 1.7 | 4.3 | 0.00 | 0.00 | 0.00 | 50 | 1017.3 |
| 20260504205503 | 62 | 165 | 1.7 | 4.3 | 0.00 | 0.00 | 0.00 | 50 | 1017.4 |
| 20260504205002 | 62 | 128 | 0.9 | 3.5 | 0.00 | 0.00 | 0.00 | 49 | 1017.4 |
| 20260504204502 | 62 | 94 | 1.7 | 3.5 | 0.00 | 0.00 | 0.00 | 49 | 1017.2 |
| 20260504203503 | 62 | 95 | 2.6 | 5.2 | 0.00 | 0.00 | 0.00 | 49 | 1017.3 |
| 20260504203003 | 62 | 109 | 3.5 | 6.1 | 0.00 | 0.00 | 0.00 | 49 | 1017.3 |
| 20260504202503 | 62 | 90 | 4.3 | 6.1 | 0.00 | 0.00 | 0.00 | 49 | 1017.3 |
| 20260504202003 | 62 | 94 | 4.3 | 7.0 | 0.00 | 0.00 | 0.00 | 49 | 1017.3 |
| 20260504201503 | 62 | 84 | 4.3 | 7.0 | 0.00 | 0.00 | 0.00 | 49 | 1017.2 |
| 20260504201002 | 63 | 80 | 4.3 | 6.1 | 0.00 | 0.00 | 0.00 | 49 | 1017.3 |
| 20260504200004 | 63 | 88 | 3.5 | 6.1 | 0.00 | 0.00 | 0.00 | 48 | 1017.3 |
| 20260504195503 | 63 | 86 | 3.5 | 7.0 | 0.00 | 0.00 | 0.00 | 48 | 1017.3 |
| 20260504195003 | 63 | 82 | 3.5 | 7.0 | 0.00 | 0.00 | 0.00 | 48 | 1017.3 |
| 20260504194503 | 63 | 86 | 3.5 | 6.1 | 0.00 | 0.00 | 0.00 | 48 | 1017.4 |
| 20260504193503 | 63 | 84 | 3.5 | 6.1 | 0.00 | 0.00 | 0.00 | 48 | 1017.4 |
| 20260504192502 | 64 | 95 | 2.6 | 5.2 | 0.00 | 0.00 | 0.00 | 48 | 1017.4 |
| 20260504191503 | 64 | 96 | 2.6 | 5.2 | 0.00 | 0.00 | 0.00 | 48 | 1017.4 |
| 20260504191005 | 64 | 94 | 2.6 | 3.5 | 0.00 | 0.00 | 0.00 | 48 | 1017.4 |
| 20260504190503 | 64 | 84 | 2.6 | 3.5 | 0.00 | 0.00 | 0.00 | 49 | 1017.4 |
| 20260504190003 | 64 | 103 | 2.6 | 3.5 | 0.00 | 0.00 | 0.00 | 49 | 1017.4 |
| 20260504185503 | 65 | 90 | 2.6 | 3.5 | 0.00 | 0.00 | 0.00 | 49 | 1017.4 |
| 20260504185002 | 65 | 90 | 2.6 | 3.5 | 0.00 | 0.00 | 0.00 | 49 | 1017.4 |
| 20260504184503 | 65 | 94 | 2.6 | 3.5 | 0.00 | 0.00 | 0.00 | 49 | 1017.4 |
| 20260504184003 | 65 | 94 | 2.6 | 3.5 | 0.00 | 0.00 | 0.00 | 49 | 1017.2 |
| 20260504183503 | 66 | 90 | 2.6 | 5.2 | 0.00 | 0.00 | 0.00 | 49 | 1017.1 |
| 20260504182503 | 66 | 90 | 2.6 | 5.2 | 0.00 | 0.00 | 0.00 | 49 | 1017.1 |
| 20260504181503 | 67 | 92 | 2.6 | 3.5 | 0.00 | 0.00 | 0.00 | 49 | 1017.1 |
| 20260504181003 | 67 | 90 | 2.6 | 5.2 | 0.00 | 0.00 | 0.00 | 48 | 1017.1 |
| 20260504180503 | 68 | 89 | 2.6 | 5.2 | 0.00 | 0.00 | 0.00 | 48 | 1017.1 |
| 20260504180004 | 68 | 89 | 1.7 | 3.5 | 0.00 | 0.00 | 0.00 | 47 | 1017.0 |
| 20260504175504 | 68 | 91 | 1.7 | 3.5 | 0.00 | 0.00 | 0.00 | 47 | 1017.1 |
| 20260504174003 | 69 | 148 | 0.9 | 1.7 | 0.00 | 0.00 | 0.00 | 46 | 1017.1 |
| 20260504173503 | 69 | 148 | 0.9 | 1.7 | 0.00 | 0.00 | 0.00 | 45 | 1017.0 |
| 20260504172503 | 70 | 148 | 0.9 | 1.7 | 0.00 | 0.00 | 0.00 | 45 | 1016.9 |
| 20260504171503 | 70 | 109 | 0.9 | 1.7 | 0.00 | 0.00 | 0.00 | 44 | 1016.8 |
| 20260504171003 | 71 | 109 | 0.9 | 1.7 | 0.00 | 0.00 | 0.00 | 43 | 1016.9 |
| 20260504170502 | 71 | 109 | 0.9 | 1.7 | 0.00 | 0.00 | 0.00 | 43 | 1017.0 |
| 20260504150959 | 74 | 61 | 1.7 | 5.2 | 0.00 | 0.00 | 0.00 | 40 | 1017.4 |
| 20260504150502 | 74 | 5 | 2.6 | 7.8 | 0.00 | 0.00 | 0.00 | 37 | 1017.5 |
| 20260504141003 | 75 | 177 | 3.5 | 7.8 | 0.00 | 0.00 | 0.00 | 40 | 1017.7 |
| 20260504140503 | 75 | 134 | 4.3 | 9.6 | 0.00 | 0.00 | 0.00 | 37 | 1017.8 |
| 20260504130503 | 76 | 222 | 2.6 | 8.7 | 0.00 | 0.00 | 0.00 | 41 | 1018.6 |
| 20260504110459 | 74 | 229 | 0.9 | 3.5 | 0.00 | 0.00 | 0.00 | 43 | 1020.0 |
| 20260504100503 | 71 | 138 | 2.6 | 8.7 | 0.00 | 0.00 | 0.00 | 44 | 1020.6 |
| 20260504082003 | 68 | 199 | 1.7 | 5.2 | 0.00 | 0.00 | 0.00 | 47 | 1021.1 |
| 20260504081503 | 67 | 150 | 0.9 | 3.5 | 0.00 | 0.00 | 0.00 | 52 | 1021.1 |
| 20260504080503 | 66 | 158 | 0.9 | 4.3 | 0.00 | 0.00 | 0.00 | 50 | 1021.1 |
| 20260504050503 | 50 | 143 | 0.9 | 4.3 | 0.00 | 0.00 | 0.00 | 66 | 1020.8 |
| 20260504050003 | 49 | 138 | 0.9 | 2.6 | 0.00 | 0.00 | 0.00 | 67 | 1020.8 |
| 20260504045502 | 49 | 138 | 0.0 | 2.6 | 0.00 | 0.00 | 0.00 | 67 | 1020.7 |
| 20260504045002 | 49 | 138 | 0.9 | 1.7 | 0.00 | 0.00 | 0.00 | 68 | 1020.7 |
| 20260504044500 | 49 | 138 | 0.9 | 1.7 | 0.00 | 0.00 | 0.00 | 66 | 1020.7 |
| 20260504043000 | 48 | 146 | 0.0 | 1.7 | 0.00 | 0.00 | 0.00 | 67 | 1020.5 |
| 20260504042503 | 47 | 146 | 0.0 | 0.9 | 0.00 | 0.00 | 0.00 | 67 | 1020.5 |
| 20260504042003 | 47 | 146 | 0.9 | 3.5 | 0.00 | 0.00 | 0.00 | 67 | 1020.5 |
| 20260504041503 | 47 | 146 | 2.6 | 4.3 | 0.00 | 0.00 | 0.00 | 67 | 1020.4 |
| 20260504041000 | 47 | 135 | 2.6 | 4.3 | 0.00 | 0.00 | 0.00 | 67 | 1020.5 |
| 20260504040503 | 46 | 153 | 1.7 | 4.3 | 0.00 | 0.00 | 0.00 | 68 | 1020.5 |
| 20260504040002 | 46 | 173 | 1.7 | 3.5 | 0.00 | 0.00 | 0.00 | 68 | 1020.4 |
| 20260504035003 | 46 | 150 | 0.9 | 3.5 | 0.00 | 0.00 | 0.00 | 68 | 1020.4 |
| 20260504034500 | 46 | 128 | 0.9 | 1.7 | 0.00 | 0.00 | 0.00 | 69 | 1020.3 |
| 20260504034003 | 46 | 143 | 1.7 | 2.6 | 0.00 | 0.00 | 0.00 | 68 | 1020.3 |
| 20260504033503 | 46 | 152 | 1.7 | 2.6 | 0.00 | 0.00 | 0.00 | 68 | 1020.3 |
| 20260504033003 | 46 | 136 | 0.9 | 2.6 | 0.00 | 0.00 | 0.00 | 68 | 1020.3 |
| 20260504032501 | 46 | 85 | 0.0 | 0.0 | 0.00 | 0.00 | 0.00 | 68 | 1020.3 |
| 20260504032002 | 46 | 85 | 0.0 | 0.0 | 0.00 | 0.00 | 0.00 | 68 | 1020.2 |
| 20260504031503 | 46 | 85 | 0.0 | 0.0 | 0.00 | 0.00 | 0.00 | 68 | 1020.3 |
| 20260504031002 | 46 | 85 | 0.0 | 0.0 | 0.00 | 0.00 | 0.00 | 67 | 1020.3 |
| 20260504030503 | 46 | 85 | 0.0 | 0.0 | 0.00 | 0.00 | 0.00 | 67 | 1020.3 |
| 20260504030005 | 47 | 85 | 0.0 | 0.9 | 0.00 | 0.00 | 0.00 | 66 | 1020.3 |